| time (UTC) | temp F | wind direction | speed knots | gust knots | rain 1hr in | rain 24hr in | rain mn in | humidity % | barometer mb |
| 20260506062506 | 28 | 351 | 0.0 | 0.0 | 0.00 | 0.23 | 0.00 | 97 | 1013.1 |
| 20260506062006 | 28 | 10 | 0.0 | 0.0 | 0.00 | 0.23 | 0.00 | 97 | 1013.1 |
| 20260506061506 | 28 | 334 | 0.0 | 0.0 | 0.00 | 0.23 | 0.00 | 97 | 1013.1 |
| 20260506061504 | 28 | 334 | 0.0 | 0.0 | 0.00 | 0.23 | 0.00 | 97 | 1013.2 |
| 20260506061006 | 28 | 334 | 0.0 | 0.0 | 0.00 | 0.23 | 0.00 | 97 | 1013.0 |
| 20260506060505 | 28 | 5 | 0.0 | 0.0 | 0.00 | 0.23 | 0.00 | 97 | 1013.0 |
| 20260506051028 | 29 | 355 | 0.0 | 0.9 | 0.00 | 0.25 | 0.23 | 97 | 1012.8 |
| 20260506050505 | 29 | 15 | 0.0 | 3.5 | 0.00 | 0.25 | 0.23 | 97 | 1012.7 |
| 20260506045005 | 29 | 30 | 0.0 | 2.6 | 0.00 | 0.28 | 0.23 | 97 | 1012.6 |
| 20260506044503 | 29 | 350 | 0.0 | 3.5 | 0.00 | 0.28 | 0.23 | 97 | 1012.2 |
| 20260506044005 | 29 | 350 | 0.0 | 1.7 | 0.00 | 0.28 | 0.23 | 97 | 1012.6 |
| 20260506043505 | 29 | 326 | 0.0 | 1.7 | 0.00 | 0.28 | 0.23 | 97 | 1012.7 |
| 20260506043006 | 29 | 342 | 0.9 | 1.7 | 0.00 | 0.28 | 0.23 | 96 | 1012.7 |
| 20260506043003 | 29 | 342 | 0.0 | 1.7 | 0.00 | 0.28 | 0.23 | 96 | 1012.3 |
| 20260506042505 | 29 | 342 | 0.0 | 1.7 | 0.00 | 0.28 | 0.23 | 96 | 1012.7 |
| 20260506042003 | 29 | 342 | 0.9 | 1.7 | 0.00 | 0.28 | 0.23 | 97 | 1012.7 |
| 20260506041509 | 29 | 337 | 0.0 | 1.7 | 0.00 | 0.28 | 0.23 | 97 | 1012.1 |
| 20260506041505 | 29 | 337 | 0.9 | 1.7 | 0.00 | 0.28 | 0.23 | 97 | 1012.7 |
| 20260506040505 | 29 | 5 | 0.0 | 2.6 | 0.00 | 0.28 | 0.23 | 97 | 1012.5 |
| 20260506040006 | 29 | 28 | 0.0 | 3.5 | 0.00 | 0.28 | 0.23 | 96 | 1011.7 |
| 20260506035504 | 29 | 32 | 0.9 | 3.5 | 0.00 | 0.28 | 0.23 | 96 | 1012.5 |
| 20260506035005 | 29 | 5 | 0.9 | 2.6 | 0.00 | 0.28 | 0.23 | 96 | 1012.5 |
| 20260506034505 | 29 | 338 | 0.0 | 1.7 | 0.00 | 0.28 | 0.23 | 96 | 1012.5 |
| 20260506034502 | 29 | 338 | 0.0 | 1.7 | 0.00 | 0.28 | 0.23 | 96 | 1011.7 |
| 20260506034005 | 29 | 350 | 0.9 | 1.7 | 0.00 | 0.28 | 0.23 | 97 | 1012.3 |
| 20260506033505 | 29 | 19 | 0.9 | 3.5 | 0.00 | 0.28 | 0.23 | 96 | 1012.3 |
| 20260506033006 | 29 | 19 | 1.7 | 3.5 | 0.00 | 0.28 | 0.23 | 96 | 1012.3 |
| 20260506033003 | 29 | 19 | 1.7 | 3.5 | 0.00 | 0.28 | 0.23 | 96 | 1011.3 |
| 20260506032006 | 29 | 13 | 0.9 | 3.5 | 0.00 | 0.28 | 0.23 | 97 | 1012.1 |
| 20260506031504 | 29 | 15 | 1.7 | 3.5 | 0.00 | 0.28 | 0.23 | 96 | 1012.0 |
| 20260506031006 | 29 | 360 | 0.9 | 4.3 | 0.00 | 0.28 | 0.23 | 96 | 1011.9 |
| 20260506030505 | 29 | 13 | 2.6 | 4.3 | 0.00 | 0.28 | 0.23 | 96 | 1011.8 |
| 20260506030007 | 30 | 40 | 0.0 | 2.6 | 0.00 | 0.28 | 0.23 | 96 | 1010.4 |
| 20260506025505 | 30 | 25 | 1.7 | 2.6 | 0.00 | 0.28 | 0.23 | 96 | 1011.6 |
| 20260506024507 | 30 | 13 | 0.9 | 4.3 | 0.00 | 0.28 | 0.23 | 96 | 1009.9 |
| 20260506024505 | 30 | 13 | 0.9 | 4.3 | 0.00 | 0.28 | 0.23 | 96 | 1011.2 |
| 20260506024005 | 30 | 13 | 0.0 | 4.3 | 0.00 | 0.28 | 0.23 | 96 | 1011.1 |
| 20260506023504 | 30 | 13 | 0.9 | 4.3 | 0.00 | 0.28 | 0.23 | 96 | 1011.1 |
| 20260506023006 | 30 | 333 | 0.9 | 3.5 | 0.00 | 0.28 | 0.23 | 96 | 1011.1 |
| 20260506023003 | 30 | 333 | 0.0 | 3.5 | 0.00 | 0.28 | 0.23 | 96 | 1009.6 |
| 20260506022504 | 30 | 20 | 2.6 | 3.5 | 0.00 | 0.28 | 0.23 | 96 | 1011.1 |
| 20260506022006 | 30 | 22 | 0.0 | 3.5 | 0.00 | 0.28 | 0.23 | 96 | 1011.0 |
| 20260506021504 | 30 | 22 | 0.9 | 3.5 | 0.00 | 0.28 | 0.23 | 96 | 1010.9 |
| 20260506021502 | 30 | 22 | 0.9 | 3.5 | 0.00 | 0.28 | 0.23 | 96 | 1009.2 |
| 20260506021005 | 31 | 22 | 0.9 | 3.5 | 0.00 | 0.28 | 0.23 | 96 | 1010.7 |
| 20260506020504 | 31 | 34 | 1.7 | 2.6 | 0.00 | 0.28 | 0.23 | 96 | 1010.6 |
| 20260506020006 | 31 | 10 | 0.9 | 3.5 | 0.00 | 0.28 | 0.23 | 96 | 1010.6 |
| 20260506015006 | 31 | 19 | 2.6 | 7.0 | 0.00 | 0.28 | 0.23 | 96 | 1010.4 |
| 20260506014504 | 31 | 23 | 3.5 | 4.3 | 0.00 | 0.28 | 0.23 | 96 | 1010.2 |
| 20260506014502 | 31 | 23 | 2.6 | 4.3 | 0.00 | 0.28 | 0.23 | 96 | 1008.3 |
| 20260506013002 | 31 | 22 | 0.9 | 4.3 | 0.00 | 0.28 | 0.23 | 96 | 1008.3 |
| 20260506012504 | 31 | 23 | 2.6 | 4.3 | 0.00 | 0.28 | 0.23 | 96 | 1010.3 |
| 20260506012006 | 31 | 24 | 2.6 | 4.3 | 0.00 | 0.28 | 0.23 | 96 | 1010.2 |
| 20260506011504 | 31 | 20 | 2.6 | 4.3 | 0.00 | 0.28 | 0.23 | 96 | 1010.0 |
| 20260506010505 | 31 | 33 | 3.5 | 4.3 | 0.00 | 0.28 | 0.23 | 96 | 1010.0 |
| 20260506010006 | 31 | 32 | 1.7 | 3.5 | 0.00 | 0.28 | 0.23 | 96 | 1010.0 |
| 20260506010003 | 31 | 32 | 0.9 | 3.5 | 0.00 | 0.28 | 0.23 | 96 | 1007.7 |
| 20260506005504 | 32 | 37 | 1.7 | 3.5 | 0.01 | 0.28 | 0.23 | 96 | 1010.1 |
| 20260506005005 | 32 | 51 | 0.9 | 3.5 | 0.01 | 0.28 | 0.23 | 96 | 1010.1 |
| 20260506004504 | 32 | 51 | 1.7 | 3.5 | 0.02 | 0.28 | 0.23 | 96 | 1009.9 |
| 20260506004005 | 32 | 59 | 2.6 | 3.5 | 0.02 | 0.28 | 0.23 | 96 | 1009.9 |
| 20260506003504 | 32 | 77 | 2.6 | 3.5 | 0.03 | 0.28 | 0.23 | 96 | 1009.9 |
| 20260506003007 | 32 | 109 | 1.7 | 5.2 | 0.03 | 0.28 | 0.23 | 95 | 1007.3 |
| 20260506003005 | 32 | 109 | 1.7 | 5.2 | 0.03 | 0.28 | 0.23 | 95 | 1009.9 |
| 20260506001504 | 32 | 88 | 5.2 | 7.8 | 0.04 | 0.28 | 0.23 | 95 | 1009.7 |
| 20260506001502 | 32 | 88 | 5.2 | 7.8 | 0.04 | 0.28 | 0.23 | 95 | 1006.9 |
| 20260506001015 | 33 | 93 | 5.2 | 7.8 | 0.04 | 0.28 | 0.23 | 94 | 1009.7 |
| 20260506000505 | 33 | 90 | 5.2 | 7.0 | 0.05 | 0.28 | 0.23 | 94 | 1009.9 |
| 20260506000006 | 34 | 86 | 3.5 | 6.1 | 0.05 | 0.28 | 0.23 | 95 | 1009.9 |
| 20260506000002 | 34 | 86 | 2.6 | 6.1 | 0.05 | 0.28 | 0.23 | 95 | 1007.0 |
| 20260505235504 | 34 | 87 | 3.5 | 7.8 | 0.04 | 0.27 | 0.22 | 95 | 1009.8 |
| 20260505235002 | 34 | 105 | 4.3 | 7.8 | 0.04 | 0.27 | 0.22 | 95 | 1009.6 |
| 20260505234503 | 35 | 109 | 4.3 | 7.0 | 0.03 | 0.26 | 0.21 | 95 | 1006.6 |
| 20260505234005 | 35 | 92 | 3.5 | 7.0 | 0.03 | 0.26 | 0.21 | 95 | 1009.7 |
| 20260505233505 | 35 | 117 | 5.2 | 7.0 | 0.02 | 0.25 | 0.20 | 95 | 1009.7 |
| 20260505233006 | 35 | 109 | 4.3 | 7.8 | 0.02 | 0.25 | 0.20 | 95 | 1009.7 |
| 20260505233002 | 35 | 109 | 4.3 | 7.8 | 0.02 | 0.25 | 0.20 | 95 | 1006.6 |
| 20260505232504 | 35 | 115 | 5.2 | 7.8 | 0.02 | 0.25 | 0.20 | 95 | 1009.5 |
| 20260505232005 | 35 | 105 | 3.5 | 8.7 | 0.01 | 0.24 | 0.19 | 95 | 1009.4 |
| 20260505231504 | 35 | 112 | 5.2 | 9.6 | 0.01 | 0.24 | 0.19 | 95 | 1009.3 |
| 20260505231006 | 35 | 101 | 7.8 | 9.6 | 0.01 | 0.24 | 0.19 | 95 | 1009.3 |
| 20260505230504 | 35 | 105 | 7.0 | 8.7 | 0.00 | 0.23 | 0.18 | 95 | 1009.3 |
| 20260505230007 | 35 | 111 | 6.1 | 9.6 | 0.00 | 0.23 | 0.18 | 94 | 1005.7 |
| 20260505225505 | 35 | 109 | 7.0 | 9.6 | 0.00 | 0.23 | 0.18 | 94 | 1009.1 |
| 20260505225005 | 35 | 128 | 5.2 | 8.7 | 0.00 | 0.23 | 0.18 | 95 | 1009.0 |
| 20260505224504 | 35 | 123 | 6.1 | 8.7 | 0.00 | 0.23 | 0.18 | 95 | 1009.0 |
| 20260505223459 | 36 | 124 | 7.0 | 11.3 | 0.01 | 0.23 | 0.18 | 94 | 1008.8 |
| 20260505223059 | 36 | 115 | 7.0 | 11.3 | 0.01 | 0.23 | 0.18 | 94 | 1005.0 |
| 20260505223006 | 36 | 106 | 7.8 | 11.3 | 0.01 | 0.23 | 0.18 | 94 | 1008.7 |
| 20260505223003 | 36 | 106 | 7.0 | 11.3 | 0.01 | 0.23 | 0.18 | 94 | 1005.0 |
| 20260505222504 | 36 | 105 | 6.1 | 10.4 | 0.01 | 0.23 | 0.18 | 94 | 1008.7 |
| 20260505222005 | 36 | 103 | 5.2 | 10.4 | 0.01 | 0.23 | 0.18 | 94 | 1008.7 |
| 20260505221503 | 36 | 103 | 7.0 | 10.4 | 0.01 | 0.23 | 0.18 | 94 | 1005.0 |
| 20260505221005 | 36 | 116 | 7.8 | 9.6 | 0.01 | 0.23 | 0.18 | 94 | 1008.9 |
| 20260505220505 | 36 | 109 | 7.0 | 10.4 | 0.01 | 0.23 | 0.18 | 94 | 1008.9 |
| 20260505220004 | 36 | 116 | 7.0 | 11.3 | 0.01 | 0.23 | 0.18 | 94 | 1005.0 |
| 20260505215006 | 36 | 121 | 7.8 | 10.4 | 0.01 | 0.23 | 0.18 | 94 | 1009.1 |
| 20260505214504 | 36 | 136 | 6.1 | 9.6 | 0.01 | 0.23 | 0.18 | 94 | 1009.1 |
| 20260505214502 | 36 | 136 | 6.1 | 9.6 | 0.01 | 0.23 | 0.18 | 94 | 1005.0 |
| 20260505214005 | 36 | 129 | 6.1 | 9.6 | 0.00 | 0.22 | 0.17 | 95 | 1009.1 |
| 20260505213005 | 36 | 94 | 7.8 | 10.4 | 0.00 | 0.22 | 0.17 | 95 | 1009.2 |
| 20260505213002 | 36 | 94 | 7.0 | 10.4 | 0.00 | 0.22 | 0.17 | 95 | 1005.1 |
| 20260505212504 | 35 | 103 | 7.0 | 9.6 | 0.00 | 0.22 | 0.17 | 94 | 1009.3 |
| 20260505212005 | 35 | 101 | 7.8 | 9.6 | 0.00 | 0.22 | 0.17 | 94 | 1009.4 |
| 20260505211504 | 36 | 101 | 7.0 | 10.4 | 0.00 | 0.22 | 0.17 | 95 | 1009.4 |
| 20260505211005 | 36 | 103 | 7.0 | 10.4 | 0.00 | 0.22 | 0.17 | 95 | 1009.5 |
| 20260505210505 | 36 | 98 | 6.1 | 9.6 | 0.01 | 0.22 | 0.17 | 95 | 1009.5 |
| 20260505210003 | 36 | 101 | 5.2 | 9.6 | 0.01 | 0.22 | 0.17 | 95 | 1005.1 |
| 20260505205005 | 35 | 104 | 7.0 | 11.3 | 0.01 | 0.22 | 0.17 | 95 | 1009.8 |
| 20260505204504 | 35 | 79 | 7.0 | 11.3 | 0.01 | 0.22 | 0.17 | 95 | 1009.9 |
| 20260505204502 | 35 | 79 | 6.1 | 11.3 | 0.01 | 0.22 | 0.17 | 95 | 1005.4 |
| 20260505204005 | 35 | 92 | 7.0 | 11.3 | 0.01 | 0.22 | 0.17 | 95 | 1009.9 |
| 20260505203504 | 35 | 84 | 6.1 | 10.4 | 0.01 | 0.22 | 0.17 | 95 | 1010.0 |
| 20260505203005 | 35 | 107 | 5.2 | 11.3 | 0.02 | 0.22 | 0.17 | 95 | 1010.0 |
| 20260505203003 | 35 | 107 | 5.2 | 11.3 | 0.02 | 0.22 | 0.17 | 95 | 1005.5 |
| 20260505202005 | 36 | 98 | 5.2 | 10.4 | 0.02 | 0.22 | 0.17 | 95 | 1010.0 |
| 20260505201507 | 35 | 61 | 7.0 | 10.4 | 0.02 | 0.22 | 0.17 | 95 | 1005.4 |
| 20260505201505 | 35 | 61 | 7.0 | 10.4 | 0.02 | 0.22 | 0.17 | 95 | 1010.1 |
| 20260505201005 | 35 | 104 | 5.2 | 11.3 | 0.02 | 0.22 | 0.17 | 95 | 1010.1 |
| 20260505200505 | 35 | 101 | 7.0 | 11.3 | 0.01 | 0.21 | 0.16 | 94 | 1010.2 |
| 20260505200006 | 35 | 104 | 7.8 | 11.3 | 0.01 | 0.21 | 0.16 | 95 | 1010.2 |
| 20260505200003 | 35 | 104 | 7.0 | 11.3 | 0.01 | 0.21 | 0.16 | 95 | 1005.4 |
| 20260505195504 | 35 | 84 | 7.0 | 9.6 | 0.01 | 0.21 | 0.16 | 94 | 1010.3 |
| 20260505195007 | 35 | 71 | 7.0 | 10.4 | 0.01 | 0.21 | 0.16 | 94 | 1010.3 |
| 20260505194504 | 35 | 88 | 7.0 | 10.4 | 0.01 | 0.21 | 0.16 | 94 | 1010.4 |
| 20260505194502 | 35 | 88 | 7.0 | 10.4 | 0.01 | 0.21 | 0.16 | 94 | 1005.4 |
| 20260505193504 | 35 | 54 | 6.1 | 8.7 | 0.02 | 0.21 | 0.16 | 94 | 1010.4 |
| 20260505193006 | 35 | 81 | 5.2 | 8.7 | 0.01 | 0.20 | 0.15 | 94 | 1010.4 |
| 20260505193002 | 35 | 81 | 5.2 | 8.7 | 0.01 | 0.20 | 0.15 | 94 | 1005.4 |
| 20260505192005 | 35 | 79 | 4.3 | 8.7 | 0.01 | 0.20 | 0.15 | 94 | 1010.6 |
| 20260505191504 | 35 | 86 | 5.2 | 10.4 | 0.02 | 0.20 | 0.15 | 94 | 1010.5 |
| 20260505191502 | 35 | 86 | 5.2 | 10.4 | 0.02 | 0.20 | 0.15 | 94 | 1005.3 |
| 20260505191005 | 35 | 82 | 6.1 | 10.4 | 0.02 | 0.20 | 0.15 | 94 | 1010.6 |
| 20260505190006 | 35 | 70 | 5.2 | 8.7 | 0.02 | 0.20 | 0.15 | 95 | 1010.7 |
| 20260505185004 | 35 | 65 | 5.2 | 10.4 | 0.02 | 0.20 | 0.15 | 95 | 1010.8 |
| 20260505184504 | 34 | 113 | 5.2 | 8.7 | 0.02 | 0.20 | 0.15 | 95 | 1010.7 |
| 20260505184005 | 34 | 73 | 5.2 | 8.7 | 0.02 | 0.20 | 0.15 | 95 | 1010.8 |
| 20260505183504 | 34 | 76 | 5.2 | 9.6 | 0.01 | 0.19 | 0.14 | 95 | 1010.9 |
| 20260505183005 | 34 | 68 | 6.1 | 8.7 | 0.01 | 0.19 | 0.14 | 95 | 1011.0 |
| 20260505183003 | 34 | 68 | 6.1 | 8.7 | 0.01 | 0.19 | 0.14 | 95 | 1005.3 |
| 20260505182504 | 34 | 80 | 6.1 | 8.7 | 0.02 | 0.19 | 0.14 | 95 | 1011.1 |
| 20260505182006 | 34 | 98 | 6.1 | 8.7 | 0.02 | 0.19 | 0.14 | 95 | 1011.2 |
| 20260505181505 | 34 | 101 | 4.3 | 8.7 | 0.01 | 0.18 | 0.13 | 95 | 1005.4 |
| 20260505181006 | 34 | 84 | 4.3 | 7.8 | 0.01 | 0.18 | 0.13 | 96 | 1011.3 |
| 20260505180503 | 34 | 71 | 5.2 | 9.6 | 0.01 | 0.18 | 0.13 | 95 | 1011.3 |
| 20260505180006 | 34 | 74 | 6.1 | 9.6 | 0.01 | 0.18 | 0.13 | 94 | 1011.3 |
| 20260505180002 | 34 | 74 | 5.2 | 9.6 | 0.01 | 0.18 | 0.13 | 94 | 1005.1 |
| 20260505175004 | 34 | 72 | 5.2 | 9.6 | 0.01 | 0.18 | 0.13 | 95 | 1011.4 |
| 20260505174505 | 34 | 59 | 5.2 | 8.7 | 0.02 | 0.18 | 0.13 | 95 | 1011.4 |
| 20260505174005 | 34 | 102 | 7.0 | 8.7 | 0.02 | 0.18 | 0.13 | 95 | 1011.4 |
| 20260505173504 | 34 | 98 | 6.1 | 8.7 | 0.02 | 0.18 | 0.13 | 95 | 1011.4 |
| 20260505173005 | 33 | 75 | 6.1 | 8.7 | 0.02 | 0.18 | 0.13 | 95 | 1011.5 |
| 20260505173002 | 33 | 75 | 5.2 | 8.7 | 0.02 | 0.18 | 0.13 | 95 | 1005.2 |
| 20260505172504 | 34 | 94 | 5.2 | 7.8 | 0.01 | 0.17 | 0.12 | 95 | 1011.7 |
| 20260505172005 | 33 | 86 | 6.1 | 8.7 | 0.01 | 0.17 | 0.12 | 95 | 1011.7 |
| 20260505171504 | 33 | 94 | 7.0 | 8.7 | 0.01 | 0.17 | 0.12 | 95 | 1011.7 |
| 20260505171502 | 33 | 94 | 7.0 | 8.7 | 0.01 | 0.17 | 0.12 | 95 | 1005.3 |
| 20260505171005 | 33 | 71 | 6.1 | 7.8 | 0.02 | 0.17 | 0.12 | 96 | 1011.7 |
| 20260505170504 | 33 | 84 | 6.1 | 10.4 | 0.02 | 0.17 | 0.12 | 95 | 1011.8 |
| 20260505170002 | 33 | 72 | 5.2 | 10.4 | 0.02 | 0.17 | 0.12 | 95 | 1005.3 |
| 20260505165509 | 33 | 74 | 6.1 | 8.7 | 0.02 | 0.17 | 0.12 | 96 | 1011.8 |
| 20260505165026 | 33 | 80 | 7.0 | 8.7 | 0.02 | 0.17 | 0.12 | 96 | 1011.8 |
| 20260505164602 | 33 | 55 | 4.3 | 8.7 | 0.01 | 0.16 | 0.11 | 96 | 1005.2 |
| 20260505164005 | 33 | 63 | 5.2 | 8.7 | 0.01 | 0.16 | 0.11 | 96 | 1011.9 |
| 20260505163510 | 33 | 55 | 5.2 | 8.7 | 0.02 | 0.16 | 0.11 | 96 | 1012.0 |
| 20260505163007 | 33 | 68 | 4.3 | 7.0 | 0.02 | 0.16 | 0.11 | 96 | 1012.1 |
| 20260505163002 | 33 | 68 | 3.5 | 7.0 | 0.02 | 0.16 | 0.11 | 96 | 1005.4 |
| 20260505162019 | 33 | 48 | 5.2 | 8.7 | 0.02 | 0.16 | 0.11 | 96 | 1012.0 |
| 20260505161505 | 32 | 41 | 5.2 | 7.8 | 0.02 | 0.16 | 0.11 | 96 | 1011.9 |
| 20260505161503 | 32 | 41 | 4.3 | 7.8 | 0.02 | 0.16 | 0.11 | 96 | 1005.1 |
| 20260505161005 | 32 | 44 | 4.3 | 8.7 | 0.01 | 0.15 | 0.10 | 96 | 1011.9 |
| 20260505160504 | 32 | 35 | 4.3 | 7.8 | 0.01 | 0.15 | 0.10 | 96 | 1011.9 |
| 20260505153007 | 32 | 48 | 5.2 | 9.6 | 0.01 | 0.14 | 0.09 | 96 | 1004.9 |
| 20260505152505 | 32 | 53 | 6.1 | 9.6 | 0.01 | 0.14 | 0.09 | 96 | 1011.9 |
| 20260505152005 | 32 | 46 | 7.0 | 10.4 | 0.01 | 0.14 | 0.09 | 96 | 1011.9 |
| 20260505151505 | 32 | 19 | 6.1 | 10.4 | 0.01 | 0.14 | 0.09 | 96 | 1011.9 |
| 20260505151502 | 32 | 19 | 5.2 | 10.4 | 0.01 | 0.14 | 0.09 | 96 | 1004.7 |
| 20260505151005 | 32 | 30 | 4.3 | 9.6 | 0.01 | 0.14 | 0.09 | 96 | 1011.9 |
| 20260505150504 | 32 | 37 | 7.0 | 9.6 | 0.01 | 0.14 | 0.09 | 96 | 1011.7 |
| 20260505140505 | 32 | 24 | 11.3 | 15.6 | 0.01 | 0.13 | 0.08 | 95 | 1011.6 |
| 20260505125005 | 38 | 69 | 5.2 | 8.7 | 0.04 | 0.12 | 0.07 | 94 | 1009.9 |
| 20260505124505 | 38 | 36 | 4.3 | 7.8 | 0.04 | 0.11 | 0.06 | 94 | 1001.4 |
| 20260505124005 | 38 | 80 | 4.3 | 9.6 | 0.04 | 0.11 | 0.06 | 94 | 1009.8 |
| 20260505123504 | 38 | 108 | 6.1 | 9.6 | 0.04 | 0.11 | 0.06 | 94 | 1009.7 |
| 20260505123006 | 38 | 110 | 6.1 | 10.4 | 0.04 | 0.11 | 0.06 | 94 | 1001.3 |
| 20260505122504 | 38 | 105 | 7.8 | 10.4 | 0.04 | 0.11 | 0.06 | 94 | 1009.7 |
| 20260505122005 | 38 | 106 | 6.1 | 8.7 | 0.04 | 0.11 | 0.06 | 94 | 1009.8 |
| 20260505121505 | 38 | 117 | 5.2 | 9.6 | 0.03 | 0.10 | 0.05 | 94 | 1009.9 |
| 20260505121502 | 38 | 117 | 5.2 | 9.6 | 0.03 | 0.10 | 0.05 | 94 | 1001.5 |
| 20260505121005 | 38 | 119 | 7.8 | 10.4 | 0.03 | 0.10 | 0.05 | 94 | 1009.8 |
| 20260505120505 | 38 | 139 | 7.8 | 10.4 | 0.03 | 0.10 | 0.05 | 94 | 1009.9 |
| 20260505120007 | 38 | 125 | 6.1 | 8.7 | 0.02 | 0.09 | 0.04 | 94 | 1009.8 |
| 20260505115503 | 38 | 117 | 6.1 | 10.4 | 0.01 | 0.08 | 0.03 | 94 | 1009.7 |
| 20260505115005 | 39 | 119 | 6.1 | 9.6 | 0.01 | 0.08 | 0.03 | 94 | 1009.6 |
| 20260505114503 | 38 | 105 | 6.1 | 9.6 | 0.00 | 0.07 | 0.02 | 94 | 1001.3 |
| 20260505114005 | 39 | 111 | 6.1 | 10.4 | 0.00 | 0.07 | 0.02 | 94 | 1009.7 |
| 20260505113504 | 39 | 130 | 7.0 | 10.4 | 0.00 | 0.07 | 0.02 | 93 | 1009.7 |
| 20260505113005 | 39 | 117 | 7.0 | 8.7 | 0.00 | 0.07 | 0.02 | 93 | 1009.7 |
| 20260505113003 | 39 | 117 | 6.1 | 8.7 | 0.00 | 0.07 | 0.02 | 93 | 1001.2 |
| 20260505112005 | 39 | 99 | 5.2 | 7.8 | 0.00 | 0.07 | 0.02 | 93 | 1009.8 |
| 20260505111507 | 39 | 98 | 4.3 | 7.8 | 0.00 | 0.07 | 0.02 | 93 | 1001.4 |
| 20260505111504 | 39 | 98 | 5.2 | 7.8 | 0.00 | 0.07 | 0.02 | 93 | 1009.8 |
| 20260505111004 | 39 | 106 | 4.3 | 8.7 | 0.00 | 0.07 | 0.02 | 93 | 1009.8 |
| 20260505110504 | 39 | 88 | 5.2 | 7.8 | 0.00 | 0.07 | 0.02 | 92 | 1009.7 |
| 20260505101507 | 40 | 108 | 0.9 | 2.6 | 0.00 | 0.07 | 0.02 | 93 | 1000.9 |
| 20260505101005 | 40 | 108 | 1.7 | 5.2 | 0.00 | 0.07 | 0.02 | 93 | 1009.6 |
| 20260505100504 | 39 | 96 | 1.7 | 5.2 | 0.00 | 0.07 | 0.02 | 93 | 1008.9 |
| 20260505100007 | 39 | 84 | 2.6 | 4.3 | 0.00 | 0.07 | 0.02 | 91 | 999.8 |
| 20260505095005 | 40 | 127 | 0.9 | 2.6 | 0.00 | 0.07 | 0.02 | 91 | 1008.9 |
| 20260505094505 | 40 | 127 | 1.7 | 2.6 | 0.00 | 0.07 | 0.02 | 91 | 1009.1 |
| 20260505094005 | 40 | 127 | 1.7 | 2.6 | 0.00 | 0.07 | 0.02 | 91 | 1008.9 |
| 20260505093505 | 40 | 127 | 0.9 | 1.7 | 0.01 | 0.07 | 0.02 | 90 | 1009.1 |
| 20260505093005 | 40 | 127 | 1.7 | 1.7 | 0.01 | 0.07 | 0.02 | 89 | 1009.1 |
| 20260505093002 | 40 | 127 | 0.9 | 1.7 | 0.01 | 0.07 | 0.02 | 89 | 1000.3 |
| 20260505092504 | 41 | 127 | 0.9 | 3.5 | 0.01 | 0.07 | 0.02 | 89 | 1009.2 |
| 20260505091505 | 41 | 127 | 1.7 | 3.5 | 0.01 | 0.07 | 0.02 | 90 | 1009.2 |
| 20260505091502 | 41 | 127 | 0.9 | 3.5 | 0.01 | 0.07 | 0.02 | 90 | 1000.3 |
| 20260505091004 | 41 | 127 | 2.6 | 3.5 | 0.01 | 0.07 | 0.02 | 90 | 1009.3 |
| 20260505090505 | 41 | 127 | 0.9 | 3.5 | 0.01 | 0.07 | 0.02 | 89 | 1009.3 |
| 20260505090007 | 42 | 127 | 2.6 | 4.3 | 0.01 | 0.07 | 0.02 | 89 | 1009.3 |
| 20260505090003 | 42 | 127 | 1.7 | 4.3 | 0.01 | 0.07 | 0.02 | 89 | 1000.3 |
| 20260505085504 | 42 | 127 | 2.6 | 3.5 | 0.01 | 0.07 | 0.02 | 89 | 1009.3 |
| 20260505084504 | 42 | 127 | 0.9 | 4.3 | 0.01 | 0.07 | 0.02 | 90 | 1009.4 |
| 20260505084501 | 42 | 127 | 0.9 | 4.3 | 0.01 | 0.07 | 0.02 | 90 | 1000.4 |
| 20260505084005 | 42 | 127 | 2.6 | 4.3 | 0.01 | 0.07 | 0.02 | 90 | 1009.3 |
| 20260505083504 | 42 | 127 | 2.6 | 3.5 | 0.00 | 0.06 | 0.01 | 90 | 1009.4 |
| 20260505083005 | 42 | 127 | 0.0 | 1.7 | 0.00 | 0.06 | 0.01 | 90 | 1009.8 |
| 20260505082503 | 42 | 127 | 0.0 | 2.6 | 0.00 | 0.06 | 0.01 | 90 | 1009.9 |
| 20260505082004 | 42 | 127 | 0.9 | 3.5 | 0.00 | 0.06 | 0.01 | 90 | 1009.9 |
| 20260505081502 | 42 | 82 | 0.9 | 2.6 | 0.00 | 0.06 | 0.01 | 91 | 1000.6 |
| 20260505081005 | 42 | 82 | 0.9 | 2.6 | 0.00 | 0.06 | 0.01 | 91 | 1009.8 |
| 20260505080504 | 42 | 82 | 0.0 | 2.6 | 0.00 | 0.06 | 0.01 | 91 | 1010.0 |
| 20260505080005 | 42 | 82 | 1.7 | 5.2 | 0.00 | 0.06 | 0.01 | 90 | 1009.8 |
| 20260505080002 | 42 | 82 | 0.9 | 5.2 | 0.00 | 0.06 | 0.01 | 90 | 1000.8 |
| 20260505075504 | 42 | 82 | 2.6 | 5.2 | 0.00 | 0.06 | 0.01 | 91 | 1009.8 |
| 20260505075006 | 42 | 82 | 1.7 | 6.1 | 0.00 | 0.06 | 0.01 | 90 | 1009.8 |
| 20260505074503 | 43 | 123 | 1.7 | 6.1 | 0.00 | 0.06 | 0.01 | 91 | 1000.9 |
| 20260505074004 | 43 | 130 | 3.5 | 6.1 | 0.00 | 0.06 | 0.01 | 91 | 1009.8 |
| 20260505073505 | 43 | 185 | 3.5 | 6.1 | 0.00 | 0.06 | 0.01 | 91 | 1010.2 |
| 20260505073007 | 43 | 168 | 2.6 | 5.2 | 0.00 | 0.06 | 0.01 | 91 | 1001.3 |
| 20260505073005 | 43 | 168 | 3.5 | 5.2 | 0.00 | 0.06 | 0.01 | 91 | 1010.3 |
| 20260505072503 | 43 | 11 | 1.7 | 2.6 | 0.00 | 0.06 | 0.01 | 91 | 1010.5 |
| 20260505072000 | 43 | 11 | 0.9 | 2.6 | 0.00 | 0.06 | 0.01 | 91 | 1010.5 |
| 20260505071501 | 43 | 11 | 0.9 | 2.6 | 0.00 | 0.06 | 0.01 | 90 | 1001.6 |
| 20260505071458 | 43 | 11 | 0.9 | 2.6 | 0.00 | 0.06 | 0.01 | 90 | 1010.6 |
| 20260505071005 | 43 | 11 | 0.9 | 2.6 | 0.00 | 0.06 | 0.01 | 90 | 1010.6 |
| 20260505070504 | 43 | 11 | 0.9 | 2.6 | 0.01 | 0.06 | 0.01 | 91 | 1010.5 |
| 20260505070006 | 43 | 11 | 0.0 | 1.7 | 0.01 | 0.06 | 0.01 | 90 | 1010.6 |
| 20260505070003 | 43 | 11 | 0.0 | 1.7 | 0.01 | 0.06 | 0.01 | 90 | 1001.6 |
| 20260505065504 | 43 | 11 | 0.0 | 0.9 | 0.01 | 0.06 | 0.01 | 91 | 1010.6 |